DateTimeUTC,F1_A11,F1_S11,BsB_S11,BsG_S11,BsR_S11,BbsB_S11,BbsG_S11,BbsR_S11,BaB_A11,BaG_A11,BaR_A11,Tu_S11,T_S11,Uu_S11,U_S11,P_S11,T1_A11
2021-11-14T05:00:00Z,00000200,21000000,,,,,,,0000.34,0000.01,-000.02,20.1,26.7,,00.0,0624.1,31.1
2021-11-14T05:01:00Z,00000200,21000000,,,,,,,-000.02,-000.44,0000.05,20.1,26.7,,00.0,0624.1,31.1
2021-11-14T05:02:00Z,00000200,21000000,,,,,,,-000.04,0000.86,0000.04,20.1,26.7,,00.0,0624.1,31.1
2021-11-14T05:03:00Z,00000200,61000000,,,,,,,0000.57,0000.11,-000.00,20.1,26.7,,00.0,0624.1,31.1
2021-11-14T05:04:00Z,00000200,41000000,0000.41,0000.52,0000.10,0000.17,0000.09,0000.31,0000.12,-000.11,0000.43,20.3,26.6,,00.0,0625.1,31.1
2021-11-14T05:05:00Z,00000200,01000000,0000.55,-000.02,0000.03,0000.47,-000.05,-000.24,0000.07,-000.17,-000.02,20.3,26.6,,00.0,0625.1,31.1
2021-11-14T05:06:00Z,00000200,01000000,0000.41,-000.03,-000.19,0000.67,-000.18,0000.09,0000.34,0000.60,0000.11,20.3,26.5,,00.0,0625.2,31.1
2021-11-14T05:07:00Z,00000200,01000000,0000.22,-000.02,-000.20,0000.60,0000.16,0000.36,-000.04,0000.14,0000.22,20.4,26.6,,00.0,0625.3,31.1
2021-11-14T05:08:00Z,00000200,01000000,-000.03,0000.02,0000.21,0000.57,-000.01,-000.08,-000.05,0000.33,0000.26,20.4,26.6,,00.0,0625.3,31.1
2021-11-14T05:09:00Z,00000200,01000000,0000.12,-000.07,0000.03,0001.22,-000.16,-000.03,0000.28,-000.19,0000.23,20.4,26.6,,00.0,0625.2,31.1
2021-11-14T05:10:00Z,00000200,01000000,0000.23,0000.13,0000.09,0000.33,-000.14,0000.18,0000.48,0000.48,0000.22,20.4,26.6,,00.0,0625.3,31.1
2021-11-14T05:11:00Z,00000200,01000000,0000.40,0000.32,-000.17,-000.07,-000.17,-000.05,0000.45,0000.33,0000.07,20.4,26.6,,00.0,0625.3,31.1
2021-11-14T05:12:00Z,00000200,01000000,0000.63,0000.13,-000.31,0000.66,0000.02,-000.11,0000.12,0000.24,0000.33,20.4,26.6,,00.0,0625.3,31.1
2021-11-14T05:13:00Z,00000200,01000000,0000.42,-000.06,-000.02,0000.91,-000.10,-000.19,0000.37,0000.43,0000.56,20.4,26.6,,00.0,0625.1,31.1
2021-11-14T05:14:00Z,00000200,01000000,0000.48,0000.30,0000.42,-000.10,-000.23,0000.20,0000.31,0000.40,0000.37,20.4,26.6,,00.0,0625.1,31.1
2021-11-14T05:15:00Z,00000200,01000000,0000.08,-000.12,0000.04,0000.05,0000.06,0000.24,0000.10,-000.10,0000.02,20.4,26.6,,00.0,0624.8,31.1
2021-11-14T05:16:00Z,00000200,01000000,0000.20,-000.00,-000.12,0000.98,-000.17,-000.28,0000.34,0000.26,0000.54,20.4,26.6,,00.0,0625.0,31.1
2021-11-14T05:17:00Z,00000200,01000000,0000.11,0000.02,0000.32,0000.41,-000.10,-000.18,0000.30,0000.59,-000.03,20.4,26.5,,00.0,0625.0,31.1
2021-11-14T05:18:00Z,00000200,01000000,0000.12,0000.23,-000.04,0000.58,-000.20,-000.00,-000.01,0000.31,0000.34,20.4,26.6,,00.0,0624.8,31.1
2021-11-14T05:19:00Z,00000200,01000000,0000.44,0000.06,0000.01,0000.55,0000.02,0000.03,0000.85,0000.29,0000.33,20.4,26.6,,00.0,0625.0,31.1
2021-11-14T05:20:00Z,00000200,01000000,0000.32,-000.05,-000.17,0000.66,0000.30,-000.06,0000.29,0000.22,0000.59,20.4,26.6,,00.0,0624.5,31.1
2021-11-14T05:21:00Z,00000200,01000000,0000.39,0000.31,0000.27,0000.78,0000.06,-000.14,0000.77,0001.06,0000.78,20.4,26.6,,00.0,0624.8,31.1
2021-11-14T05:22:00Z,00000200,01000000,0000.09,-000.07,-000.12,0000.77,-000.01,0000.21,0000.32,0000.32,0000.30,20.4,26.6,,00.0,0624.7,31.1
2021-11-14T05:23:00Z,00000200,01000000,0000.00,0000.54,0000.52,0000.72,0000.04,-000.03,0000.66,0000.57,0000.75,20.4,26.6,,00.0,0624.5,31.1
2021-11-14T05:24:00Z,00000200,01010000,0000.63,-000.03,0000.10,0000.55,-000.21,0000.26,0000.13,0000.39,0000.23,20.4,26.5,,00.0,0624.7,31.1
2021-11-14T05:25:00Z,00000200,01000000,0000.34,0000.37,0000.30,0000.38,-000.20,-000.01,0000.70,0000.64,0000.48,20.4,26.5,,00.0,0625.0,31.1
2021-11-14T05:26:00Z,00000200,01000000,0000.59,0000.02,0000.12,0000.41,-000.03,0000.01,0000.99,0000.38,0000.68,20.4,26.5,,00.0,0624.6,31.1
2021-11-14T05:27:00Z,00000200,01000000,0000.49,0000.08,0000.19,0000.40,-000.25,0000.08,0000.04,0000.86,0000.21,20.4,26.5,,00.0,0624.6,31.1
2021-11-14T05:28:00Z,00000200,01000000,0000.91,0000.09,0000.54,0000.19,0000.04,0000.33,0001.18,0000.68,0001.32,20.4,26.5,,00.0,0624.5,31.1
2021-11-14T05:29:00Z,00000200,01000000,0000.31,0000.27,0000.28,0000.33,-000.03,0000.31,0000.88,0001.39,0001.02,20.4,26.5,,00.0,0624.6,31.1
2021-11-14T05:30:00Z,00000200,01000000,-000.41,0000.54,0000.04,0000.57,-000.20,-000.08,0001.47,0001.17,0001.18,20.4,26.5,,00.0,0624.6,31.1
2021-11-14T05:31:00Z,00000200,01000000,0000.16,0000.25,-000.36,0000.23,0000.12,-000.19,0000.88,0000.55,0000.53,20.4,26.5,,00.0,0624.6,31.1
2021-11-14T05:32:00Z,00000200,01000000,0000.46,0000.11,0000.11,0000.63,0000.14,-000.14,0000.01,0000.09,0000.59,20.4,26.5,,00.0,0624.3,31.1
2021-11-14T05:33:00Z,00000200,01000000,0000.23,0000.36,0000.13,0000.00,-000.40,-000.49,0001.15,0001.24,0001.27,20.4,26.5,,00.0,0624.5,31.1
2021-11-14T05:34:00Z,00000200,01000000,-000.02,0000.26,0000.15,0000.57,0000.06,-000.26,0000.78,0000.87,0000.51,20.4,26.5,,00.0,0624.6,31.1
2021-11-14T05:35:00Z,00000200,01000000,0000.52,0000.04,0000.01,0000.42,0000.03,-000.18,0000.66,0001.05,0000.98,20.4,26.5,,00.0,0624.5,31.1
2021-11-14T05:36:00Z,00000200,01000000,0000.33,0000.05,0000.26,0000.18,0000.21,0000.20,0000.61,0000.58,0000.63,20.3,26.5,,00.0,0624.3,31.1
2021-11-14T05:37:00Z,00000200,01000000,0000.24,0000.49,0000.30,0000.19,0000.10,-000.28,0001.28,0000.87,0001.32,20.4,26.5,,00.0,0624.4,31.1
2021-11-14T05:38:00Z,00000200,01000000,0001.40,-000.02,0000.35,0000.45,-000.07,0000.29,0001.20,0001.31,0000.86,20.3,26.5,,00.0,0624.2,31.1
2021-11-14T05:39:00Z,00000200,01000000,0000.40,0000.41,0000.32,0000.41,-000.27,0000.12,0001.36,0001.35,0001.48,20.3,26.5,,00.0,0624.0,31.1
2021-11-14T05:40:00Z,00000200,01000000,0000.00,0000.34,0000.38,0000.27,-000.16,0000.12,0000.77,0001.30,0001.64,20.3,26.5,,00.0,0624.3,31.1
2021-11-14T05:41:00Z,00000200,01000000,0000.82,0000.13,0000.12,0000.88,0000.10,0000.19,0001.05,0000.67,0000.09,20.3,26.5,,00.0,0624.5,31.1
2021-11-14T05:42:00Z,00000200,01000000,-000.18,0000.36,0000.55,0000.93,0000.02,0000.29,0000.51,0000.81,0000.90,20.3,26.5,,00.0,0624.3,31.1
2021-11-14T05:43:00Z,00000200,01000000,0000.58,0000.52,0000.67,0000.49,-000.30,0000.33,0001.69,0001.02,0001.52,20.3,26.5,,00.0,0624.0,31.0
2021-11-14T05:44:00Z,00000200,01000000,0000.22,0000.15,0000.09,0000.14,0000.09,-000.22,0000.54,0000.72,0000.41,20.3,26.5,,00.0,0624.5,31.1
2021-11-14T05:45:00Z,00000200,01000000,-000.85,0000.33,0000.41,0000.39,-000.27,0000.55,0000.51,0000.93,0000.73,20.3,26.5,,00.0,0624.8,31.1
2021-11-14T05:46:00Z,00000200,01000000,-000.60,0000.50,0000.47,0000.58,0000.00,0000.09,0000.54,0000.31,0000.98,20.3,26.5,,00.0,0624.7,31.1
2021-11-14T05:47:00Z,00000200,01000000,-000.05,0000.27,-000.08,0000.60,-000.09,0000.06,0000.59,0000.72,0000.66,20.3,26.5,,00.0,0624.7,31.1
2021-11-14T05:48:00Z,00000200,01000000,0000.17,0000.36,0000.28,0000.38,-000.00,0000.19,0000.36,0000.32,0000.14,20.3,26.4,,00.0,0624.8,31.1
2021-11-14T05:49:00Z,00000200,01000000,-000.18,0000.25,0000.40,0000.51,0000.37,0000.15,0000.11,0000.22,-000.06,20.3,26.5,,00.0,0624.7,31.1
2021-11-14T05:50:00Z,00000200,01000000,0000.62,-000.14,0000.25,0000.86,-000.12,-000.02,0000.90,0000.86,0000.95,20.3,26.5,,00.0,0624.7,31.1
2021-11-14T05:51:00Z,00000200,01000000,0000.50,0000.18,0000.20,0000.33,-000.05,0000.33,0000.30,0000.18,-000.14,20.3,26.5,,00.0,0624.8,31.1
2021-11-14T05:52:00Z,00000200,01000000,0000.01,0000.06,-000.18,0000.36,0000.08,-000.18,0000.11,-000.30,0000.43,20.3,26.5,,00.0,0625.0,31.1
2021-11-14T05:53:00Z,00000200,01000000,-000.01,-000.05,-000.02,0000.78,0000.09,-000.00,0000.46,0001.00,0000.32,20.3,26.4,,00.0,0624.9,31.1
2021-11-14T05:54:00Z,00000200,01000000,0000.81,-000.30,-000.03,0000.04,0000.06,0000.11,0000.47,0000.23,0000.86,20.3,26.5,,00.0,0625.1,31.1
2021-11-14T05:55:00Z,00000200,01000000,-000.25,0000.06,0000.12,0000.60,0000.06,-000.23,0000.42,0000.03,0000.01,20.3,26.5,,00.0,0624.9,31.1
2021-11-14T05:56:00Z,00000200,01000000,-000.02,-000.01,0000.05,0000.28,-000.31,0000.20,-000.29,0000.33,0000.12,20.3,26.5,,00.0,0624.9,31.1
2021-11-14T05:57:00Z,00000200,41000000,,,,,,,0000.26,-000.06,-000.30,20.3,26.5,,00.0,0625.0,31.1
2021-11-14T05:58:00Z,00000200,61000000,,,,,,,-000.18,0000.49,0000.56,20.0,26.5,,00.0,0624.1,31.1
2021-11-14T05:59:00Z,00000200,21000000,,,,,,,0000.43,-000.21,-000.28,20.0,26.6,,00.0,0624.2,31.1
